FW4518 Weather Reports


Display with metric or nautical units.
time (UTC)temp
F
wind
direction
speed
MPH
gust
MPH
rain 1hr
in
rain 24hr
in
rain mn
in
humidity
%
barometer
mb
20260506050632 61 0.0 0.0 0.00 0.00 0.00 68 1015.5
20260506044632 62 0.0 0.0 0.00 0.00 0.00 61 1015.3
20260506043652 63 0.0 0.0 0.00 0.00 0.00 61 1015.2
20260506042632 64 0.0 1.0 0.00 0.00 0.00 61 1015.0
20260506041633 65 0.0 0.0 0.00 0.00 0.00 56 1014.8
20260506040633 66 0.0 0.0 0.00 0.00 0.00 60 1014.7
20260506035712 68 0.0 0.0 0.00 0.00 0.00 58 1014.5
20260506034633 70 9 0.0 2.0 0.00 0.00 0.00 54 1014.2
20260506033632 72 6 1.0 2.0 0.00 0.00 0.00 50 1014.0
20260506032634 73 6 1.0 3.0 0.00 0.00 0.00 49 1013.9
20260506031632 74 4 1.0 4.0 0.00 0.00 0.00 47 1013.8
20260506030632 74 16 2.0 4.0 0.00 0.00 0.00 46 1013.7
20260506025635 75 8 3.0 5.0 0.00 0.00 0.00 44 1013.6
20260506024633 75 4 3.0 6.0 0.00 0.00 0.00 45 1013.5
20260506023632 76 45 4.0 8.0 0.00 0.00 0.00 44 1013.4
20260506022635 76 17 4.0 6.0 0.00 0.00 0.00 44 1013.3
20260506021713 76 13 4.0 7.0 0.00 0.00 0.00 43 1013.3
20260506020632 76 16 5.0 8.0 0.00 0.00 0.00 43 1013.2
20260506015633 76 44 4.0 7.0 0.00 0.00 0.00 43 1013.2
20260506014632 76 21 6.0 9.0 0.00 0.00 0.00 44 1013.2
20260506013633 77 357 5.0 8.0 0.00 0.00 0.00 42 1013.1
20260506012633 77 40 6.0 10.0 0.00 0.00 0.00 42 1013.1
20260506011633 79 14 6.0 10.0 0.00 0.00 0.00 41 1013.0
20260506010634 79 22 6.0 11.0 0.00 0.00 0.00 40 1012.9
20260506005633 79 91 6.0 12.0 0.00 0.00 0.00 41 1012.9
20260506004633 79 350 7.0 13.0 0.00 0.00 0.00 41 1012.8
20260506003633 80 17 5.0 10.0 0.00 0.00 0.00 41 1012.8
20260506002634 79 7 9.0 14.0 0.00 0.00 0.00 40 1012.8
20260506001633 80 334 4.0 10.0 0.00 0.00 0.00 40 1012.7
20260506000633 79 22 9.0 16.0 0.00 0.00 0.00 40 1012.7
20260505235633 79 358 5.0 9.0 0.00 0.00 0.00 40 1012.8
20260505234634 79 13 6.0 9.0 0.00 0.00 0.00 40 1012.9
20260505233635 80 8 7.0 11.0 0.00 0.00 0.00 40 1012.9
20260505232633 81 22 3.0 7.0 0.00 0.00 0.00 39 1012.9
20260505231633 80 27 7.0 11.0 0.00 0.00 0.00 38 1013.0
20260505230633 80 333 6.0 10.0 0.00 0.00 0.00 38 1013.0
20260505225633 80 13 7.0 13.0 0.00 0.00 0.00 39 1013.0
20260505224654 80 259 6.0 10.0 0.00 0.00 0.00 38 1013.1
20260505223633 80 285 5.0 12.0 0.00 0.00 0.00 39 1013.1
20260505222635 80 19 6.0 14.0 0.00 0.00 0.00 39 1013.1
20260505221633 79 9 9.0 16.0 0.00 0.00 0.00 41 1013.2
20260505220653 81 42 5.0 10.0 0.00 0.00 0.00 40 1013.2
20260505215633 79 21 5.0 10.0 0.00 0.00 0.00 42 1013.2
20260505214633 79 25 7.0 13.0 0.00 0.00 0.00 40 1013.3
20260505213633 80 59 7.0 13.0 0.00 0.00 0.00 41 1013.3
20260505212633 79 155 4.0 9.0 0.00 0.00 0.00 42 1013.5
20260505211633 78 9 5.0 9.0 0.00 0.00 0.00 44 1013.5
20260505210633 78 353 7.0 11.0 0.00 0.00 0.00 43 1013.5
20260505205653 78 62 6.0 11.0 0.00 0.00 0.00 43 1013.6
20260505204633 76 97 5.0 12.0 0.00 0.00 0.00 45 1013.7
20260505203633 77 20 6.0 11.0 0.00 0.00 0.00 44 1013.7
20260505202635 77 22 7.0 12.0 0.00 0.00 0.00 43 1013.8
20260505201633 76 24 7.0 12.0 0.00 0.00 0.00 43 1013.9
20260505200653 76 29 6.0 10.0 0.00 0.00 0.00 45 1013.9
20260505195633 76 40 6.0 10.0 0.00 0.00 0.00 45 1014.0
20260505194633 76 28 4.0 8.0 0.00 0.00 0.00 47 1014.1
20260505193633 75 14 5.0 9.0 0.00 0.00 0.00 47 1014.1
20260505192633 75 25 5.0 12.0 0.00 0.00 0.00 47 1014.2
20260505191714 75 20 4.0 10.0 0.00 0.00 0.00 48 1014.3
20260505190634 73 43 5.0 10.0 0.00 0.00 0.00 49 1014.3
20260505185633 74 24 4.0 8.0 0.00 0.00 0.00 51 1014.4
20260505184634 74 314 2.0 3.0 0.00 0.00 0.00 51 1014.4
20260505183633 72 37 3.0 9.0 0.00 0.00 0.00 52 1014.4
20260505182634 71 32 2.0 7.0 0.00 0.00 0.00 54 1014.4
20260505181635 72 358 0.0 2.0 0.00 0.00 0.00 54 1014.4
20260505180633 71 285 3.0 8.0 0.00 0.00 0.00 54 1014.5
20260505175634 70 162 2.0 4.0 0.00 0.00 0.00 54 1014.5
20260505174633 69 333 0.0 2.0 0.00 0.00 0.00 56 1014.6
20260505173633 68 17 1.0 4.0 0.00 0.00 0.00 58 1014.6
20260505172634 68 26 2.0 6.0 0.00 0.00 0.00 58 1014.6
20260505171633 67 83 2.0 7.0 0.00 0.00 0.00 59 1014.6
20260505170714 67 301 1.0 4.0 0.00 0.00 0.00 57 1014.6
20260505165634 65 138 2.0 4.0 0.00 0.00 0.00 59 1014.7
20260505164713 65 168 3.0 5.0 0.00 0.00 0.00 61 1014.7
20260505163634 63 215 1.0 4.0 0.00 0.00 0.00 65 1014.7
20260505162633 61 222 2.0 3.0 0.00 0.00 0.00 68 1014.8
20260505161654 60 187 3.0 5.0 0.00 0.00 0.00 73 1014.8
20260505160634 59 156 2.0 3.0 0.00 0.00 0.00 73 1014.9
20260505152634 54 174 2.0 4.0 0.00 0.00 0.00 79 1015.0
20260505151634 53 193 2.0 4.0 0.00 0.00 0.00 83 1014.9
20260505150654 52 178 2.0 4.0 0.00 0.00 0.00 82 1014.9
20260505140634 43 0.0 0.0 0.00 0.00 0.00 99 1014.6
20260505124634 42 0.0 0.0 0.00 0.00 0.00 97 1013.8
20260505123654 42 0.0 0.0 0.00 0.00 0.00 96 1013.8
20260505122655 42 0.0 0.0 0.00 0.00 0.00 95 1013.8
20260505121634 42 0.0 0.0 0.00 0.00 0.00 93 1013.8
20260505120634 43 0.0 0.0 0.00 0.00 0.00 94 1013.7
20260505115634 44 189 0.0 1.0 0.00 0.00 0.00 93 1013.6
20260505114634 44 0.0 0.0 0.00 0.00 0.00 95 1013.5
20260505113634 44 0.0 0.0 0.00 0.00 0.00 91 1013.5
20260505112634 44 0.0 0.0 0.00 0.00 0.00 91 1013.6
20260505111634 45 197 0.0 2.0 0.00 0.00 0.00 89 1013.5
20260505110634 45 0.0 0.0 0.00 0.00 0.00 90 1013.4
20260505101634 45 0.0 0.0 0.00 0.00 0.00 86 1013.0
20260505100634 46 0.0 0.0 0.00 0.00 0.00 84 1013.0
20260505095634 46 0.0 0.0 0.00 0.00 0.00 82 1013.0
20260505094634 47 0.0 0.0 0.00 0.00 0.00 80 1013.1
20260505093634 47 0.0 0.0 0.00 0.00 0.00 78 1013.1
20260505092654 48 0.0 0.0 0.00 0.00 0.00 77 1013.1
20260505091634 48 0.0 0.0 0.00 0.00 0.00 76 1013.0
20260505090714 49 0.0 0.0 0.00 0.00 0.00 73 1012.9
20260505085634 50 0.0 0.0 0.00 0.00 0.00 72 1012.9
20260505084634 51 0.0 0.0 0.00 0.00 0.00 69 1012.8
20260505083634 52 0.0 1.0 0.00 0.00 0.00 65 1012.7
20260505082634 52 0.0 1.0 0.00 0.00 0.00 67 1012.7
20260505081634 54 0.0 0.0 0.00 0.00 0.00 61 1012.7
20260505080634 56 266 0.0 2.0 0.00 0.00 0.00 57 1012.6
20260505075655 57 0.0 0.0 0.00 0.00 0.00 56 1012.6
20260505074635 59 353 0.0 3.0 0.00 0.00 0.00 55 1012.5
20260505073654 59 322 3.0 5.0 0.00 0.00 0.00 54 1012.4
20260505072634 55 230 1.0 2.0 0.00 0.00 0.00 58 1012.6
20260505071635 55 0.0 0.0 0.00 0.00 0.00 60 1012.5
20260505070635 56 0.0 1.0 0.00 0.00 0.00 54 1012.3
20260505065634 56 0.0 0.0 0.00 0.00 0.00 53 1012.2
20260505064714 56 0.0 0.0 0.00 0.00 0.00 56 1012.1
20260505063654 57 0.0 0.0 0.00 0.00 0.00 56 1012.0
20260505062634 61 256 1.0 2.0 0.00 0.00 0.00 47 1012.0
20260505061634 61 359 1.0 3.0 0.00 0.00 0.00 46 1012.0
20260505060634 62 29 2.0 5.0 0.00 0.00 0.00 45 1011.8
20260505055634 62 21 3.0 6.0 0.00 0.00 0.00 45 1011.8
20260505054635 62 13 2.0 6.0 0.00 0.00 0.00 45 1011.8